Regional Weather Roundup
Issued by NWS Midland/Odessa, TX

Skip options and go directly to product.
Home | Oldest Version | Previous Version | Current Version | All | Text Only | Save Text | Print | Product List | Glossary On

Skip product version selection by date and time.   
444
ASUS44 KMAF 301510
RWRMAF
MIDLAND AREA WEATHER ROUNDUP
NATIONAL WEATHER SERVICE MIDLAND TX
900 AM CST FRI JAN 30 2015

...IN SOUTHWEST TEXAS AND SOUTHEAST NEW MEXICO...

CITY           SKY/WX    TMP DP  RH WIND       PRES   REMARKS
ALPINE         CLOUDY    39  29  67 NE9       30.39F WCI  33
ANDREWS        CLOUDY    39  29  67 E12       30.42S WCI  32
ARTESIA        DRIZZLE   39  37  93 CALM      30.40F
BIG SPRING     CLOUDY    43  29  57 NE9       30.45R WCI  38
CARLSBAD       LGT RAIN  41  34  76 E3        30.39S
DRYDEN           N/A     49  32  52 NE10      30.37S
FORT STOCKTON  CLOUDY    43  33  68 NE8       30.38F WCI  38
GUAD PASS      FRZ RAIN  31  29  92 NE46      30.22F WCI  13
HOBBS          CLOUDY    37  28  70 E12       30.40F WCI  30
MARFA          CLOUDY    37  30  75 NE16      30.31S WCI  28
MIDLAND AIRPK  CLOUDY    43  29  59 E9        30.43S WCI  37
MIDLAND INTL   CLOUDY    42  29  59 E12       30.41R WCI  36
ODESSA         CLOUDY    41  28  60 E10       30.42R WCI  35
PECOS          DRIZZLE   41  36  82 NE7       30.40S WCI  37
PRESIDIO       CLOUDY    52  35  52 NE13G21   30.28R
SEMINOLE       CLOUDY    39  28  63 E9        30.44R WCI  33
SNYDER         CLOUDY   N/A N/A N/A E12       30.45S
WINK           LGT RAIN  43  30  60 E10       30.38F WCI  37
$$
...OTHER STATIONS IN TEXAS...

CITY           SKY/WX    TMP DP  RH WIND       PRES   REMARKS
ABILENE        CLOUDY    42  30  62 E8        30.47S WCI  37
AMARILLO       CLOUDY    36  27  69 S10       30.43F WCI  28
AUSTIN         CLOUDY    48  34  58 N15       30.45R
BROWNSVILLE    SUNNY     68  65  90 NE6       30.31R FOG
CORPUS CHRISTI PTSUNNY   57  42  57 NE22G29   30.36R
DALLAS FTW     PTSUNNY   43  31  62 NE9       30.50R WCI  38
DEL RIO        CLOUDY    55  36  48 NE5       30.37R
EL PASO        CLOUDY    41  36  82 NE9       30.24F WCI  35
HOUSTON INT    CLOUDY    50  39  66 NE13      30.42R
LUBBOCK        CLOUDY    38  27  64 SE13      30.42F WCI  30
SAN ANGELO     CLOUDY    45  32  60 NE12      30.43R WCI  39
SAN ANTONIO    CLOUDY    51  34  52 NE14G20   30.41R
WACO           PTSUNNY   45  33  63 NE13      30.49R WCI  39
WICHITA FALLS  NOT AVBL
$$
...OTHER LOCATIONS IN NEW MEXICO...

CITY           SKY/WX    TMP DP  RH WIND       PRES   REMARKS
ALAMAGORDO     LGT RAIN  39  39 100 N3        30.26F
ALBUQUERQUE    LGT SNOW  33  30  88 E14       30.27F VSB 1   WCI  23
CANNON AFB     CLOUDY    37  28  70 SE7       30.38F WCI  32
CLOVIS         CLOUDY    36  28  75 SE8       30.39F WCI  29
HOLLOMAN AFB   LGT RAIN  40  40  99 SW7       30.25F WCI  36
ROSWELL        LGT RAIN  41  32  70 E3        30.39S
RUIDOSO        LGT SNOW  28  27  93 SE9       30.33F WCI  20
SANTA FE       LGT SNOW  29  25  85 S6        30.29F VSB 1   WCI  23
TRUTH OR CONSE LGT RAIN  37  36  96 N10       30.23F FOG     WCI  30
TUCUMCARI      CLOUDY    38  30  73 SW9       30.37F WCI  31
$$

USA.gov is the U.S. government's official web portal to all federal, state and local government web resources and services.